Location: ??? ?????
(30.6482°N, 60.5850°E)
Time: 20:41:07
(UTC+00:00)

Cosmos 1953 - Pass Details

Date: 09 April 2020
Orbit: 540 x 557 km, 82.5° (Epoch: 24 May)

Event Time Altitude Azimuth Distance (km) Brightness Sun altitude
Rises 14:40:46 0° 184° (S) 2,681 5.7 -4.8°
Reaches altitude 10° 14:42:54 10° 183° (S) 1,794 4.9 -5.3°
Maximum altitude 14:46:51 85° 98° (E) 548 2.3 -6.1°
Drops below altitude 10° 14:50:50 10° 7° (N) 1,814 5.1 -6.9°
Sets 14:53:00 0° 7° (N) 2,713 5.9 -7.4°
